Total_Precipitation_Accumulation
0.03 0.06 0.16 0.34 0.95 1.15 0.98 0.58 0.43 0.35 0.34 0.37 0.44 0.43 0.42 0.47 0.59 1.00 0.52 0.17 0.07 0.03 0.04 0.15 0.25 0.21 0.17 0.16 0.19 0.21 0.23 0.23 0.23 0.22 0.20 0.17 0.17 0.18 0.18 0.21 0.24 0.25 0.28 0.28 0.30 0.35 0.41 0.46 0.49
0.06 0.09 0.22 0.57 0.99 1.04 0.89 0.46 0.35 0.32 0.29 0.40 0.46 0.39 0.33 0.36 0.26 0.23 0.23 0.18 0.07 0.02 0.02 0.05 0.17 0.19 0.16 0.16 0.19 0.18 0.19 0.17 0.17 0.17 0.17 0.16 0.17 0.19 0.20 0.22 0.24 0.28 0.31 0.34 0.38 0.41 0.38 0.34 0.40
0.08 0.13 0.36 0.74 0.63 0.58 0.56 0.32 0.29 0.35 0.43 0.61 0.71 0.48 0.38 0.45 0.30 0.17 0.14 0.11 0.08 0.05 0.03 0.07 0.15 0.17 0.15 0.15 0.16 0.17 0.15 0.15 0.16 0.16 0.17 0.16 0.18 0.21 0.22 0.25 0.29 0.34 0.43 0.45 0.44 0.41 0.35 0.33 0.37
0.08 0.17 0.39 0.46 0.27 0.24 0.31 0.23 0.29 0.39 0.67 0.79 0.82 0.64 0.49 0.44 0.31 0.21 0.12 0.09 0.09 0.06 0.05 0.10 0.16 0.17 0.17 0.15 0.15 0.15 0.15 0.16 0.17 0.18 0.17 0.16 0.19 0.23 0.26 0.30 0.32 0.34 0.42 0.41 0.43 0.38 0.37 0.35 0.39
0.07 0.21 0.44 0.32 0.14 0.13 0.16 0.14 0.20 0.32 0.57 0.78 0.80 0.84 0.73 0.58 0.44 0.29 0.17 0.10 0.07 0.05 0.06 0.09 0.16 0.19 0.20 0.19 0.19 0.18 0.17 0.16 0.17 0.18 0.17 0.19 0.24 0.28 0.33 0.35 0.32 0.30 0.38 0.39 0.37 0.40 0.40 0.42 0.45
0.13 0.23 0.35 0.25 0.14 0.10 0.12 0.12 0.21 0.39 0.60 0.77 0.93 1.01 0.81 0.57 0.43 0.31 0.22 0.20 0.21 0.08 0.06 0.11 0.18 0.21 0.22 0.23 0.23 0.22 0.20 0.18 0.18 0.19 0.19 0.22 0.26 0.28 0.30 0.33 0.34 0.32 0.35 0.35 0.37 0.38 0.36 0.42 0.49
0.10 0.17 0.22 0.17 0.13 0.10 0.10 0.16 0.26 0.40 0.52 0.81 1.09 1.13 0.83 0.69 0.54 0.38 0.38 0.35 0.60 0.31 0.17 0.16 0.16 0.21 0.24 0.28 0.27 0.25 0.22 0.21 0.21 0.21 0.21 0.21 0.22 0.24 0.29 0.35 0.38 0.36 0.37 0.37 0.39 0.37 0.37 0.43 0.46
0.07 0.08 0.12 0.12 0.07 0.06 0.09 0.16 0.26 0.39 0.66 0.93 0.95 1.02 1.00 0.74 0.65 0.62 0.64 0.61 0.73 0.58 0.35 0.27 0.27 0.32 0.31 0.30 0.29 0.30 0.26 0.23 0.22 0.22 0.20 0.23 0.25 0.27 0.36 0.41 0.44 0.43 0.47 0.44 0.45 0.45 0.47 0.51 0.53
0.04 0.08 0.12 0.10 0.04 0.05 0.12 0.21 0.28 0.34 0.55 0.73 0.81 0.77 0.61 0.58 0.72 0.81 0.86 0.89 0.92 0.88 0.75 0.65 0.55 0.48 0.50 0.45 0.37 0.42 0.40 0.39 0.37 0.39 0.40 0.49 0.64 0.61 0.71 0.64 0.68 0.64 0.66 0.67 0.70 0.71 0.71 0.73 0.66
0.02 0.07 0.06 0.03 0.02 0.04 0.10 0.19 0.32 0.41 0.70 1.06 1.09 1.12 0.78 0.80 0.95 1.01 0.99 0.94 1.08 1.18 1.08 1.05 0.89 0.69 0.61 0.57 0.71 0.87 0.82 0.83 0.86 0.93 0.91 1.05 1.14 1.14 0.92 0.97 1.08 1.10 1.18 1.18 1.22 1.39 1.21 0.98 0.83
0.01 0.02 0.01 0.01 0.01 0.01 0.05 0.11 0.15 0.35 0.77 1.21 1.27 1.23 1.03 1.01 1.12 1.23 1.27 1.39 1.51 1.66 1.43 1.21 1.19 1.11 1.09 1.10 1.09 1.13 1.27 1.34 1.46 1.53 1.49 1.63 1.43 1.28 1.18 1.37 1.56 1.52 1.49 1.40 1.63 1.86 1.54 1.47 1.61
0.00 0.00 0.01 0.01 0.01 0.01 0.04 0.11 0.21 0.36 0.79 1.07 0.98 0.86 0.89 1.09 1.29 1.46 1.82 2.05 2.22 2.32 2.23 2.11 1.87 1.69 1.67 1.52 1.34 1.27 1.27 1.32 1.41 1.52 1.56 1.73 1.81 1.71 1.73 1.87 1.73 1.71 1.75 1.93 1.91 2.12 2.00 1.86 1.79
0.00 0.00 0.01 0.01 0.01 0.02 0.06 0.15 0.29 0.42 0.69 0.67 0.59 0.66 1.05 1.31 1.54 1.85 2.08 2.29 2.51 2.85 3.07 3.48 3.21 2.56 2.19 1.90 1.59 1.32 1.29 1.16 1.11 1.21 1.42 1.60 1.74 1.86 1.97 1.81 1.69 1.49 1.70 1.97 2.05 1.88 2.07 2.07 2.10
0.00 0.00 0.02 0.03 0.02 0.03 0.07 0.12 0.36 0.48 0.58 0.65 0.63 0.92 1.38 1.87 2.06 2.29 2.58 2.98 3.27 3.69 3.70 3.80 4.13 3.48 2.70 2.17 1.81 1.50 1.22 1.23 1.23 1.22 1.27 1.46 1.61 1.70 1.76 1.69 1.61 1.57 1.68 1.86 1.89 1.90 2.14 2.23 2.20
0.00 0.03 0.11 0.10 0.06 0.06 0.09 0.22 0.46 0.61 0.63 0.84 0.91 1.14 1.68 2.32 2.32 2.60 2.90 3.37 3.82 4.27 4.37 4.39 4.58 4.17 3.55 2.96 2.37 1.83 1.53 1.33 1.33 1.35 1.25 1.26 1.39 1.42 1.51 1.53 1.48 1.54 1.59 1.59 1.57 1.65 1.85 1.85 1.80
0.01 0.08 0.24 0.19 0.09 0.09 0.15 0.55 0.75 0.67 0.65 0.94 1.16 1.39 1.85 2.50 2.56 2.86 3.32 3.85 4.53 4.94 5.14 5.15 4.91 4.69 4.16 3.49 2.91 2.47 2.14 1.83 1.56 1.42 1.26 1.10 1.16 1.18 1.25 1.19 1.19 1.21 1.24 1.25 1.31 1.36 1.52 1.64 1.72
0.03 0.09 0.21 0.20 0.14 0.12 0.21 0.65 0.69 0.47 0.63 0.92 1.23 1.53 1.82 2.16 2.65 3.21 3.71 4.29 5.17 6.09 6.51 6.27 5.56 5.01 4.41 3.78 3.25 3.03 2.77 2.35 1.92 1.73 1.51 1.28 1.15 1.10 1.11 1.10 1.10 0.96 1.00 1.03 0.99 1.14 1.32 1.48 1.53
0.03 0.07 0.15 0.22 0.17 0.22 0.32 0.42 0.54 0.59 0.77 0.99 1.21 1.38 1.66 1.96 2.36 3.05 3.63 4.31 5.25 6.45 7.12 6.97 6.26 5.31 4.55 4.10 3.60 3.33 3.00 2.56 2.08 1.81 1.64 1.40 1.29 1.11 1.01 0.95 0.88 0.78 0.86 0.96 1.04 1.25 1.26 1.24 1.28
0.03 0.06 0.14 0.21 0.17 0.25 0.32 0.43 0.58 0.75 0.98 1.02 1.10 1.21 1.43 1.72 2.13 2.79 3.47 4.04 4.69 5.41 5.94 5.78 5.12 4.58 3.94 3.38 2.79 2.59 2.31 2.09 1.84 1.62 1.41 1.36 1.30 1.10 1.01 0.90 0.95 0.81 0.80 0.82 0.81 0.93 1.00 0.99 1.04
0.04 0.07 0.13 0.18 0.14 0.14 0.26 0.52 0.67 0.76 0.93 0.89 0.91 0.94 1.13 1.48 2.09 2.86 3.47 3.66 3.66 3.90 4.14 3.62 3.38 3.29 2.84 2.51 2.39 2.20 1.99 1.78 1.58 1.47 1.37 1.16 1.10 1.02 0.92 0.95 0.91 0.84 0.86 0.82 0.80 0.89 0.94 0.94 0.98
0.07 0.09 0.09 0.15 0.16 0.22 0.36 0.68 0.90 0.83 0.82 0.71 0.70 0.91 1.38 1.77 2.20 2.71 2.88 2.88 2.75 2.72 2.68 2.42 2.32 2.54 2.40 2.31 2.23 2.15 2.05 1.94 1.69 1.40 1.30 1.09 0.94 0.91 0.91 0.89 0.92 0.92 0.78 0.78 0.82 0.80 0.83 0.85 0.85
0.07 0.06 0.04 0.04 0.12 0.34 0.50 0.90 1.06 0.99 0.92 0.65 0.69 1.08 1.58 1.90 2.17 2.15 1.76 1.63 1.76 1.84 1.91 2.10 2.14 2.18 2.05 2.02 1.80 1.62 1.46 1.31 1.22 1.19 1.14 1.13 0.99 0.90 0.83 0.83 0.93 0.91 0.79 0.85 0.67 0.68 0.79 0.83 0.72
0.04 0.04 0.03 0.05 0.15 0.39 0.65 1.06 1.24 1.02 0.84 0.60 0.57 0.66 1.04 1.25 1.23 1.02 0.88 0.95 1.18 1.41 1.63 1.98 2.03 1.95 1.83 1.76 1.71 1.69 1.57 1.49 1.40 1.36 1.36 1.31 1.28 1.13 0.92 0.81 0.89 0.93 0.89 0.93 0.83 0.90 0.77 0.70 0.64
0.03 0.04 0.10 0.20 0.37 0.82 0.86 0.95 1.17 0.98 0.78 0.60 0.41 0.45 0.70 0.74 0.59 0.61 0.69 0.88 1.11 1.28 1.38 1.56 1.70 1.83 1.86 1.86 1.87 1.76 1.67 1.65 1.50 1.36 1.25 1.23 1.22 1.16 1.07 0.97 1.04 1.04 0.97 0.96 0.90 0.94 0.88 0.81 0.76
0.03 0.05 0.25 0.60 0.89 1.01 0.72 0.86 1.16 0.78 0.52 0.40 0.28 0.26 0.29 0.34 0.43 0.60 0.66 0.85 0.96 1.07 1.10 1.19 1.29 1.46 1.57 1.64 1.73 1.74 1.71 1.67 1.49 1.37 1.22 1.16 1.06 0.99 1.03 1.10 1.15 1.09 1.09 1.02 0.98 0.98 0.97 1.02 1.01
0.04 0.03 0.10 0.21 0.33 0.52 0.68 1.07 1.15 0.75 0.40 0.24 0.19 0.19 0.18 0.23 0.29 0.34 0.38 0.47 0.61 0.78 0.97 1.10 1.14 1.13 1.15 1.19 1.35 1.52 1.53 1.52 1.43 1.41 1.21 1.13 1.04 1.04 1.11 1.17 1.08 1.02 1.02 0.99 1.02 0.94 0.89 0.95 1.01
0.03 0.03 0.04 0.05 0.08 0.31 0.73 1.00 0.92 0.58 0.40 0.28 0.24 0.24 0.21 0.21 0.28 0.25 0.25 0.31 0.40 0.46 0.61 0.82 0.89 0.89 0.90 0.95 1.07 1.16 1.22 1.32 1.38 1.31 1.14 1.02 1.04 1.06 1.06 0.99 0.96 0.98 1.00 1.04 1.07 1.03 0.98 1.00 0.89
0.04 0.03 0.03 0.05 0.10 0.23 0.56 1.03 1.17 0.80 0.55 0.39 0.32 0.25 0.21 0.22 0.23 0.26 0.27 0.27 0.29 0.32 0.45 0.61 0.75 0.77 0.78 0.82 0.89 0.88 1.01 1.11 1.19 1.17 1.11 0.99 0.97 1.03 1.03 0.98 0.93 0.94 0.89 0.91 1.01 0.98 1.02 1.08 1.03
0.05 0.04 0.05 0.06 0.07 0.15 0.41 0.66 0.65 0.67 0.52 0.34 0.31 0.26 0.21 0.22 0.25 0.30 0.25 0.29 0.26 0.25 0.33 0.45 0.62 0.69 0.65 0.67 0.75 0.84 0.93 1.08 1.13 1.08 1.09 1.02 1.00 1.02 1.02 1.00 1.03 1.00 0.95 0.92 0.96 0.94 1.01 1.08 1.17
0.07 0.07 0.07 0.08 0.08 0.11 0.20 0.33 0.37 0.40 0.43 0.47 0.39 0.33 0.32 0.32 0.27 0.28 0.23 0.26 0.20 0.21 0.28 0.37 0.44 0.52 0.55 0.61 0.72 0.79 0.85 0.96 1.07 1.03 1.06 1.12 1.08 1.05 1.00 0.99 1.05 0.99 0.95 0.97 0.91 0.90 0.96 1.06 1.15